Weather in Ust'-Sarapulka

Russia / Udmurt Republic     56°23′33″N   53°51′13″E
temp.,
°C
wind,
m/s
gust,
m/s
humid.,
%
clouds,
%
prec.,
mm/h
press.,
hPa
HPBL,
m
6 march, sat
sat601:00−14wsw47960 0.0 100790
04:00−14wsw479714 0.0 1009109
07:00−14wsw369696 0.1 1009138
10:00−10wnw359398 0.4 1010384
13:00−10wnw358268 0.0 1011633
16:00−10w358578 0.1 1011799
19:00−14w348988 0.0 101231
22:00−17w349446 0.0 101335
7 march, sun
sun701:00−20w22980 0.0 101220
04:00−21wsw1110016 0.0 101220
07:00−21sw1210082 0.0 101120
10:00−16sw229489 0.1 1011180
13:00−13sw229095 0.0 1010340
16:00−12ssw239097 0.1 1009415
19:00−17s239796 0.0 100821
22:00−18sse339992 0.1 100843
8 march, mon
mon801:00−16sse4897100 0.1 1005187
04:00−14sse51095100 0.1 1003325
07:00−12sse61195100 1.1 999523
10:00−8sse71293100 1.8 998705
13:00−5sw6108067 0.3 998862
16:00−5sw5108540 0.3 999746
19:00−9s478986 0.0 999128
22:00−9se379192 0.0 997148
9 march, tue
tue901:00−7e5996100 2.3 993416
04:00−9ssw81490100 4.6 992657
07:00−8wnw91490100 0.9 994963
10:00−10w71290100 1.0 998460
13:00−6w698698 0.0 1002850
16:00−7w588699 0.1 1005849
19:00−12w379597 0.1 1007156
22:00−13w359694 0.2 1009136
10 march, wed
wed1001:00−16w239692 0.0 101029
04:00−15wnw239696 0.3 101146
07:00−17n349796 0.1 1011115
10:00−16n469498 0.3 1012311
13:00−15n4591100 0.1 1013438
16:00−15n4690100 0.1 1013569
19:00−17nnw3696100 0.1 1014186
22:00−19nnw359698 0.1 1016102